When you browse on this site, cookies collect data to enhance your experience and personalize the content and advertising you see.
Visit our Privacy Policy to learn more. By continuing to use the site, you agree to this use of cookies and data.
  • In Switzerland
  • List of Countries
  • For 7 days
  • Water Temperature
  • Weather Map
  • Weather Widgets
  • user-avatar
    Login

    Hourly Weather Merida

    Today, 19 September, Thursday

    Time Temperature Precipitation Wind Pressure Humidity
    00:00 +21°C° 0 mm 3 mps 742 mmHg 60%
    01:00 +21°C° 0 mm 2 mps 741 mmHg 64%
    02:00 +20°C° 0 mm 2 mps 741 mmHg 67%
    03:00 +20°C° 0 mm 1 mps 741 mmHg 70%
    04:00 +20°C° 0 mm 1 mps 741 mmHg 73%
    05:00 +20°C° 0 mm 1 mps 741 mmHg 75%
    06:00 +19°C° 0 mm 1 mps 741 mmHg 77%
    07:00 +21°C° 0 mm 1 mps 741 mmHg 69%
    08:00 +23°C° 0 mm 1 mps 742 mmHg 62%
    09:00 +25°C° 0 mm 1 mps 742 mmHg 54%
    10:00 +27°C° 0 mm 1 mps 742 mmHg 47%
    11:00 +29°C° 0 mm 1 mps 741 mmHg 40%
    12:00 +31°C° 0 mm 1 mps 741 mmHg 33%
    13:00 +32°C° 0 mm 1 mps 741 mmHg 30%
    14:00 +32°C° 0 mm 1 mps 740 mmHg 27%
    15:00 +33°C° 0 mm 1 mps 740 mmHg 25%
    16:00 +32°C° 0 mm 2 mps 740 mmHg 26%
    17:00 +31°C° 0 mm 2 mps 740 mmHg 27%
    18:00 +30°C° 0 mm 3 mps 739 mmHg 28%
    19:00 +29°C° 0 mm 2 mps 740 mmHg 31%
    20:00 +27°C° 0 mm 2 mps 740 mmHg 35%
    21:00 +26°C° 0 mm 1 mps 740 mmHg 38%
    22:00 +25°C° 0 mm 1 mps 740 mmHg 42%
    23:00 +24°C° 0 mm 2 mps 740 mmHg 47%

    Tomorrow, 20 September, Friday

    Time Temperature Precipitation Wind Pressure Humidity
    00:00 +23°C° 0 mm 2 mps 740 mmHg 51%
    01:00 +21°C° 0 mm 2 mps 739 mmHg 56%
    02:00 +21°C° 0 mm 1 mps 739 mmHg 61%
    03:00 +21°C° 0 mm 1 mps 739 mmHg 65%
    04:00 +20°C° 0 mm 1 mps 739 mmHg 68%
    05:00 +20°C° 0 mm 1 mps 739 mmHg 70%
    06:00 +20°C° 0 mm 1 mps 739 mmHg 72%
    07:00 +21°C° 0 mm 1 mps 739 mmHg 66%
    08:00 +23°C° 0 mm 1 mps 740 mmHg 59%
    09:00 +24°C° 0 mm 1 mps 740 mmHg 53%
    10:00 +26°C° 0 mm 2 mps 740 mmHg 47%
    11:00 +27°C° 0 mm 2 mps 739 mmHg 42%
    12:00 +28°C° 0 mm 3 mps 739 mmHg 37%
    13:00 +28°C° 0 mm 3 mps 739 mmHg 36%
    14:00 +29°C° 0 mm 3 mps 738 mmHg 35%
    15:00 +29°C° 0 mm 3 mps 738 mmHg 34%
    16:00 +28°C° 0 mm 3 mps 738 mmHg 37%
    17:00 +27°C° 0 mm 2 mps 738 mmHg 40%
    18:00 +26°C° 0 mm 2 mps 738 mmHg 43%
    19:00 +25°C° 0 mm 2 mps 738 mmHg 46%
    20:00 +24°C° 0 mm 3 mps 739 mmHg 49%
    21:00 +22°C° 0 mm 3 mps 739 mmHg 53%
    22:00 +21°C° 0 mm 3 mps 739 mmHg 57%
    23:00 +20°C° 0 mm 3 mps 738 mmHg 61%

    Day after tomorrow, 21 September, Saturday

    Time Temperature Precipitation Wind Pressure Humidity
    00:00 +19°C° 0 mm 3 mps 738 mmHg 66%
    01:00 +19°C° 0 mm 2 mps 738 mmHg 69%
    02:00 +18°C° 0 mm 2 mps 738 mmHg 73%
    03:00 +19°C° 0 mm 1 mps 738 mmHg 76%
    04:00 +19°C° 0 mm 1 mps 738 mmHg 76%
    05:00 +19°C° 0 mm 1 mps 738 mmHg 75%
    06:00 +19°C° 0 mm 1 mps 737 mmHg 75%
    07:00 +19°C° 0 mm 2 mps 738 mmHg 69%
    08:00 +20°C° 0 mm 3 mps 738 mmHg 63%
    09:00 +21°C° 0 mm 3 mps 738 mmHg 57%
    10:00 +22°C° 0.1 mm 4 mps 738 mmHg 57%
    11:00 +23°C° 0.1 mm 4 mps 738 mmHg 58%
    12:00 +25°C° 0.1 mm 5 mps 738 mmHg 58%
    13:00 +25°C° 0.3 mm 5 mps 737 mmHg 59%
    14:00 +25°C° 0.3 mm 5 mps 737 mmHg 61%
    15:00 +25°C° 0.3 mm 5 mps 737 mmHg 63%
    16:00 +23°C° 0.5 mm 5 mps 737 mmHg 67%
    17:00 +22°C° 0.5 mm 5 mps 737 mmHg 72%
    18:00 +22°C° 0.5 mm 6 mps 737 mmHg 76%
    19:00 +21°C° 0.2 mm 5 mps 738 mmHg 77%
    20:00 +21°C° 0.2 mm 5 mps 739 mmHg 79%
    21:00 +20°C° 0.2 mm 5 mps 739 mmHg 80%
    22:00 +19°C° 0 mm 4 mps 739 mmHg 80%
    23:00 +18°C° 0 mm 3 mps 739 mmHg 80%

    22 September, Sunday

    Time Temperature Precipitation Wind Pressure Humidity
    00:00 +17°C° 0 mm 3 mps 739 mmHg 79%
    01:00 +16°C° 0 mm 2 mps 740 mmHg 82%
    02:00 +15°C° 0 mm 2 mps 740 mmHg 85%
    03:00 +15°C° 0 mm 2 mps 740 mmHg 87%
    04:00 +14°C° 0 mm 1 mps 740 mmHg 89%
    05:00 +14°C° 0 mm 1 mps 740 mmHg 91%
    06:00 +14°C° 0 mm 1 mps 741 mmHg 93%
    07:00 +15°C° 0 mm 2 mps 741 mmHg 84%
    08:00 +17°C° 0 mm 2 mps 742 mmHg 75%
    09:00 +18°C° 0 mm 3 mps 742 mmHg 66%
    10:00 +19°C° 0 mm 3 mps 742 mmHg 56%
    11:00 +21°C° 0 mm 3 mps 742 mmHg 47%
    12:00 +22°C° 0 mm 3 mps 742 mmHg 37%
    13:00 +24°C° 0 mm 3 mps 742 mmHg 34%
    14:00 +25°C° 0 mm 3 mps 742 mmHg 31%
    15:00 +25°C° 0 mm 3 mps 742 mmHg 28%
    16:00 +25°C° 0 mm 3 mps 742 mmHg 30%
    17:00 +24°C° 0 mm 3 mps 742 mmHg 33%
    18:00 +23°C° 0 mm 2 mps 742 mmHg 36%
    19:00 +21°C° 0 mm 2 mps 743 mmHg 40%
    20:00 +20°C° 0 mm 2 mps 743 mmHg 45%
    21:00 +19°C° 0 mm 2 mps 743 mmHg 50%
    22:00 +19°C° 0 mm 1 mps 743 mmHg 53%
    23:00 +19°C° 0 mm 1 mps 743 mmHg 57%

    23 September, Monday

    Time Temperature Precipitation Wind Pressure Humidity
    00:00 +18°C° 0 mm 1 mps 743 mmHg 60%
    01:00 +18°C° 0 mm 1 mps 743 mmHg 62%
    02:00 +18°C° 0 mm 1 mps 743 mmHg 64%
    03:00 +15°C° 0 mm 0 mps 743 mmHg 67%
    04:00 +15°C° 0 mm 0 mps 743 mmHg 68%
    05:00 +15°C° 0 mm 0 mps 743 mmHg 70%
    06:00 +14°C° 0 mm 0 mps 744 mmHg 71%
    07:00 +16°C° 0 mm 0 mps 744 mmHg 64%
    08:00 +18°C° 0 mm 0 mps 744 mmHg 57%
    09:00 +22°C° 0 mm 1 mps 744 mmHg 50%
    10:00 +24°C° 0 mm 1 mps 744 mmHg 43%
    11:00 +26°C° 0 mm 1 mps 744 mmHg 36%
    12:00 +28°C° 0 mm 1 mps 744 mmHg 29%
    13:00 +28°C° 0 mm 1 mps 744 mmHg 27%
    14:00 +29°C° 0 mm 1 mps 743 mmHg 25%
    15:00 +29°C° 0 mm 2 mps 743 mmHg 23%
    16:00 +29°C° 0 mm 2 mps 743 mmHg 25%
    17:00 +28°C° 0 mm 2 mps 742 mmHg 27%
    18:00 +27°C° 0 mm 2 mps 742 mmHg 28%
    19:00 +26°C° 0 mm 1 mps 743 mmHg 31%
    20:00 +24°C° 0 mm 1 mps 743 mmHg 34%
    21:00 +23°C° 0 mm 1 mps 743 mmHg 37%
    22:00 +22°C° 0 mm 1 mps 743 mmHg 38%
    23:00 +20°C° 0 mm 0 mps 743 mmHg 40%

    24 September, Tuesday

    Time Temperature Precipitation Wind Pressure Humidity
    00:00 +19°C° 0 mm 0 mps 743 mmHg 42%
    01:00 +19°C° 0 mm 0 mps 743 mmHg 43%
    02:00 +18°C° 0 mm 0 mps 742 mmHg 44%
    03:00 +18°C° 0 mm 0 mps 742 mmHg 45%
    04:00 +18°C° 0 mm 0 mps 742 mmHg 46%
    05:00 +17°C° 0 mm 0 mps 742 mmHg 47%
    06:00 +17°C° 0 mm 0 mps 742 mmHg 48%
    07:00 +19°C° 0 mm 0 mps 742 mmHg 43%
    08:00 +21°C° 0 mm 0 mps 743 mmHg 37%
    09:00 +24°C° 0 mm 0 mps 743 mmHg 32%
    10:00 +27°C° 0 mm 1 mps 743 mmHg 28%
    11:00 +29°C° 0 mm 1 mps 743 mmHg 24%
    12:00 +31°C° 0 mm 2 mps 742 mmHg 21%
    13:00 +32°C° 0 mm 2 mps 742 mmHg 20%
    14:00 +33°C° 0 mm 3 mps 741 mmHg 19%
    15:00 +34°C° 0 mm 4 mps 741 mmHg 18%
    16:00 +33°C° 0 mm 3 mps 741 mmHg 20%
    17:00 +30°C° 0 mm 3 mps 740 mmHg 23%
    18:00 +29°C° 0 mm 3 mps 740 mmHg 25%
    19:00 +27°C° 0 mm 3 mps 741 mmHg 30%
    20:00 +26°C° 0 mm 3 mps 741 mmHg 34%
    21:00 +24°C° 0 mm 2 mps 741 mmHg 38%
    22:00 +22°C° 0 mm 3 mps 741 mmHg 46%
    23:00 +21°C° 0 mm 3 mps 741 mmHg 53%
    Show more